Leuven Template:n sääsivut:

Template documentation
and downloads

And another site



Normaali sää.    Ei varoituksia

Select another period ( hide this area )

Yksiköt Aika Custom range Directly to
Metriset Englantilaiset Molemmat
Päivittäin Viikoittain Kuukausittain Vuosittain
use both date-selectors for a custom range
previous Päivä
With this date

WeatherUnderground graphs for this period ( click here )


Päivittäin yhteenveto Lauantai 24 Elokuu 2019
Aika Temp. ( °C ) Dew pt. ( °C ) Tuuli ( km/h ) Alkaa Puuska ( km/h ) Ilmanpaine ( hPa ) Humid.( % ) Rainrate ( cm ) Aurinkoenergia ( W/m2 )
Ylin16,2 13,8 20,9 Länsiluode ( 363/1080 ) 27,4 1020,5 97 0,20 568
Keskiarvo13,2 12,0 7,0 Länsi #46/155 7,4 1017,0 93 0,40 146 #84/155
Alin11,5 10,9 -   0,0 1014,1 77 -  
Päivittäin Tabular details for Lauantai 24 Elokuu 2019
Aika Temp. ( °C ) Dew pt. ( °C ) Tuuli ( km/h ) Alkaa Puuska ( km/h ) Ilmanpaine ( hPa ) Humid.( % ) Rainrate ( cm ) Aurinkoenergia ( W/m2 )
00:01 14,4 13,8 8,0 Lounas 14,5 1014,2 96 - -
00:05 14,3 13,7 13,5 Lounas 8,4 1014,1 96 0,20 -
00:11 14,3 13,7 8,0 Länsilounas 16,1 1014,2 96 - -
00:15 14,3 13,7 14,8 Länsilounas 5,6 1014,2 96 0,20 -
00:20 14,3 13,7 10,1 Länsi 6,6 1014,3 96 0,20 -
00:25 14,3 13,7 10,1 Länsilounas 7,4 1014,4 96 0,20 -
00:31 14,2 13,6 4,8 Länsilounas 12,9 1014,4 96 - -
00:35 14,2 13,6 15,3 Länsi 8,2 1014,5 96 0,20 -
00:41 14,1 13,4 1,6 Länsilounas 16,1 1014,6 96 - -
00:45 13,9 13,3 5,6 Länsiluode 3,4 1014,7 96 0,20 -
00:51 13,8 13,2 4,8 Länsi 12,9 1014,8 96 - -
00:56 13,8 13,0 13,5 Länsi 6,1 1014,8 95 - -
01:00 13,7 13,1 9,3 Länsiluode 4,2 1014,8 96 - -
01:06 13,6 13,0 7,4 Lounas 2,6 1014,8 96 - -
01:10 13,5 12,7 11,9 Länsiluode 1,8 1014,8 95 - -
01:15 13,4 12,8 6,8 Länsiluode 1,6 1014,8 96 - -
01:21 13,4 12,8 1,6 Luode 9,7 1014,9 96 - -
01:25 13,3 12,7   Tyyntä   1014,9 96 - -
01:31 13,1 12,3   Tyyntä 1,6 1014,9 95 - -
01:35 13,0 12,2 3,7 Luode 0,6 1014,9 95 - -
01:40 12,9 12,3 5,6 Luode 1,0 1015,0 96 - -
01:46 12,8 12,2 3,7 Luode 0,6 1014,9 96 - -
01:51 12,7 12,1   Tyyntä 9,7 1015,0 96 - -
01:55 12,6 12,0 3,7 Luode 0,2 1015,0 96 - -
02:01 12,5 11,8   Tyyntä 3,2 1015,1 96 - -
02:05 12,3 11,7   Tyyntä   1015,1 96 - -
02:11 12,2 11,6   Tyyntä 1,6 1015,1 96 - -
02:15 12,2 11,6 3,7 Länsiluode 1,0 1015,2 96 - -
02:21 12,3 11,7   Tyyntä 9,7 1015,3 96 - -
02:25 12,2 11,6 7,4 Länsiluode 2,7 1015,3 96 - -
02:31 12,2 11,7 1,6 Länsiluode 8,0 1015,4 97 - -
02:36 12,1 11,6 13,5 Länsilounas 9,2 1015,4 97 - -
02:41 12,2 11,7 3,2 Länsilounas 14,5 1015,4 97 - -
02:46 12,1 11,7 7,4 Länsilounas 1,6 1015,4 97 - -
02:50 12,1 11,6 3,7 Länsi 0,5 1015,4 97 - -
02:55 12,1 11,6 10,1 Länsi 2,9 1015,5 97 - -
03:01 12,0 11,4 3,2 Länsilounas 14,5 1015,5 96 - -
03:05 12,0 11,4 9,3 Länsilounas 5,1 1015,5 96 - -
03:11 11,9 11,3 1,6 Länsilounas 9,7 1015,5 96 - -
03:15 11,9 11,3 3,7 Länsi 0,6 1015,5 96 - -
03:21 11,8 11,2 3,2 Länsi 9,7 1015,5 96 - -
03:25 11,8 11,2 3,7 Länsiluode 1,0 1015,5 96 - -
03:30 11,7 11,1 8,4 Länsi 2,1 1015,5 96 - -
03:36 11,7 11,1 1,6 Länsi 0,2 1015,6 96 - -
03:40 11,6 11,0   Tyyntä   1015,6 96 - -
03:45 11,5 10,9 7,4 Länsi 1,8 1015,6 96 - -
03:50 11,6 10,9 7,4 Länsi 3,2 1015,6 96 - -
03:55 11,6 11,1   Tyyntä   1015,6 97 - -
04:01 11,6 11,1 3,2 Länsi 9,7 1015,7 97 - -
04:05 11,7 11,2 9,3 Länsilounas 2,3 1015,7 97 - -
04:11 11,7 11,2 1,6 Länsilounas 12,9 1015,8 97 - -
04:15 11,7 11,2 1,9 Lounas 0,2 1015,8 97 - -
04:21 11,7 11,2   Tyyntä 9,7 1015,9 97 - -
04:26 11,6 11,2 8,4 Länsilounas 3,5 1015,9 97 - -
04:31 11,6 11,2   Tyyntä 9,7 1016,0 97 - -
04:36 11,6 11,2 9,3 Länsilounas 3,1 1016,0 97 - -
04:41 11,7 11,2 3,2 Länsiluode 11,3 1016,1 97 - -
04:45 11,7 11,2 3,7 Länsiluode 0,6 1016,2 97 - -
04:51 11,7 11,2   Tyyntä 8,0 1016,2 97 - -
04:55 11,7 11,2   Tyyntä   1016,2 97 - -
05:01 11,7 11,2   Tyyntä 3,2 1016,3 97 - -
05:05 11,7 11,2 7,4 Länsiluode 3,2 1016,4 97 - -
05:11 11,8 11,3 1,6 Luode 9,7 1016,4 97 - -
05:15 11,8 11,3 9,3 Luode 3,9 1016,4 97 - -
05:21 11,8 11,4 3,2 Luode 9,7 1016,5 97 - -
05:26 11,9 11,4 11,1 Luode 7,2 1016,6 97 - -
05:30 11,9 11,5 9,3 Luode 4,3 1016,6 97 - -
05:35 11,9 11,5 9,3 Länsiluode 4,0 1016,7 97 - -
05:40 11,9 11,3 7,4 Länsiluode 1,6 1016,7 96 0,20 -
05:45 11,9 11,3 1,9 Länsiluode   1016,7 96 0,20 -
05:51 11,9 11,3   Tyyntä 3,2 1016,7 96 - -
05:55 11,8 11,2 1,9 Länsiluode 0,2 1016,8 96 0,20 5
06:01 11,7 11,1   Tyyntä 3,2 1016,8 96 - 7
06:05 11,8 11,2   Tyyntä   1016,9 96 0,20 7
06:11 11,8 11,2   Tyyntä 9,7 1016,9 96 - 9
06:15 11,9 11,3   Tyyntä   1016,9 96 0,20 11
06:20 11,9 11,3 1,6 Länsiluode 0,2 1017,0 96 0,20 14
06:25 12,0 11,6 3,4 Länsiluode 0,6 1017,0 97 0,20 14
06:31 12,0 11,4 1,6 Länsiluode 9,7 1017,0 96 - 19
06:36 12,1 11,4 7,4 Länsi 3,2 1017,2 96 - 19
06:41 12,1 11,6   Tyyntä 9,7 1017,2 97 - 26
06:46 12,0 11,4   Tyyntä   1017,1 96 - 23
06:51 12,0 11,4 1,6 Länsi 9,7 1017,2 96 - 26
06:55 12,0 11,6 9,3 Länsi 5,0 1017,2 97 - 44
07:01 12,1 11,6 1,6 Länsi 9,7 1017,3 97 - 42
07:05 12,1 11,7 6,8 Länsi 1,6 1017,3 97 - 42
07:11 12,2 11,7 1,6 Länsi 9,7 1017,3 97 - 42
07:15 12,2 11,8 5,1 Länsi 0,5 1017,4 97 - 51
07:21 12,3 11,8 3,2 Länsi 11,3 1017,3 97 - 51
07:25 12,3 11,9 10,1 Länsilounas 7,7 1017,4 97 - 47
07:31 12,3 11,7   Tyyntä 9,7 1017,4 96 - 54
07:36 12,4 11,8 9,3 Lounas 3,9 1017,3 96 - 56
07:41 12,4 11,8 3,2 Lounas 11,3 1017,4 96 - 81
07:46 12,5 11,9 5,6 Länsilounas 2,6 1017,5 96 - 58
07:50 12,6 11,9 10,1 Länsilounas 9,3 1017,5 96 - 72
07:55 12,7 12,1 6,8 Länsi 2,7 1017,5 96 - 74
08:01 12,7 12,1 1,6 Länsi 9,7 1017,5 96 - 77
08:05 12,8 12,2 7,4 Länsi 0,8 1017,5 96 - 86
08:11 12,8 12,0 3,2 Länsi 11,3 1017,6 95 - 67
08:15 12,8 12,1 11,9 Länsilounas 8,0 1017,6 95 - 81
08:21 12,8 12,1 9,7 Länsilounas 14,5 1017,6 95 - 79
08:25 12,9 12,1 3,7 Länsi 1,4 1017,6 95 - 120
08:30 13,0 12,2 11,9 Lounas 8,0 1017,7 95 - 146
08:35 13,0 12,2 7,4 Länsilounas 3,4 1017,8 95 - 118
08:40 13,1 12,1 8,4 Länsiluode 2,9 1017,9 94 - 102
08:46 13,1 12,1 7,4 Länsi 4,3 1018,1 94 - 102
08:51 13,1 12,2 8,0 Länsi 14,5 1018,1 94 - 79
08:55 13,1 12,2 11,9 Länsi 6,0 1018,2 94 - 86
09:01 13,1 12,2 9,7 Länsi 12,9 1018,3 94 - 98
09:05 13,2 12,1 18,5 Länsilounas 5,3 1018,3 93 - 121
09:10 13,2 12,1 3,7 Länsi 2,4 1018,3 93 - 128
09:15 13,3 12,2 15,3 Länsi 6,8 1018,2 93 - 204
09:21 13,6 12,4 8,0 Länsi 14,5 1018,2 93 - 272
09:25 13,7 12,6 9,3 Länsilounas 6,6 1018,2 93 - 186
09:31 13,8 12,6 8,0 Länsilounas 16,1 1018,2 92 - 243
09:35 13,9 12,5 13,5 Länsi 10,5 1018,2 91 - 258
09:41 14,1 12,6 8,0 Länsi 16,1 1018,3 91 - 206
09:46 14,2 12,8 13,5 Länsilounas 9,5 1018,4 91 - 207
09:51 14,3 12,8 4,8 Länsi 12,9 1018,4 91 - 165
09:56 14,3 12,7 11,9 Länsi 8,0 1018,5 90 - 162
10:01 14,3 12,7 8,0 Länsi 16,1 1018,4 90 - 200
10:06 14,6 12,9 9,3 Länsi 6,8 1018,4 90 - 547
10:10 14,8 13,2 7,4 Länsi 2,9 1018,5 90 - 452
10:15 15,1 12,9 11,1 Länsiluode 3,1 1018,6 87 - 197
10:21 15,2 12,9 8,0 Länsiluode 16,1 1018,6 86 - 568
10:25 15,5 13,3 13,0 Luode 6,9 1018,7 87 - 325
10:31 15,5 13,0 4,8 Länsi 19,3 1018,8 85 - 156
10:35 15,3 12,6 16,9 Länsilounas 10,3 1018,9 84 - 83
10:41 14,9 12,4 3,2 Länsi 20,9 1019,0 85 - 84
10:45 14,8 12,3 13,5 Länsiluode 7,4 1019,0 85 - 70
10:50 14,8 12,3 10,1 Länsiluode 6,9 1019,1 85 - 111
10:56 14,8 12,3 13,0 Länsi 9,0 1019,1 85 - 172
11:00 14,9 12,4 11,9 Länsi 7,1 1019,3 85 - 206
11:06 15,1 12,6 13,5 Luode 6,8 1019,2 85 - 302
11:11 15,3 12,7 9,7 Länsiluode 14,5 1019,3 84 - 237
11:15 15,4 12,6 16,9 Länsiluode 10,9 1019,4 83 - 199
11:21 15,3 12,3 8,0 Länsi 20,9 1019,4 82 - 155
11:25 15,3 12,4 16,9 Länsi 10,3 1019,6 83 - 246
11:31 15,4 12,4 8,0 Länsiluode 22,5 1019,6 82 - 323
11:35 15,8 12,7 13,5 Länsiluode 6,6 1019,5 82 - 564
11:41 16,2 12,4 9,7 Länsiluode 14,5 1019,6 78 - 220
11:45 16,1 12,0 15,3 Länsiluode 11,3 1019,7 77 - 149
11:51 15,9 12,1 11,3 Länsiluode 20,9 1019,7 78 - 188
11:56 15,8 12,2 10,1 Länsiluode 4,3 1019,8 79 - 193
12:01 15,8 12,3 3,2 Länsiluode 14,5 1019,9 80 - 244
12:06 15,9 12,2 16,9 Länsiluode 11,1 1019,9 79 - 188
12:11 15,8 12,2 9,7 Länsiluode 16,1 1020,0 79 - 153
12:16 15,7 12,1 10,1 Länsiluode 7,9 1020,0 79 - 116
12:20 15,7 12,1 13,5 Länsiluode 11,4 1020,1 79 - 88
12:25 15,6 12,1 10,1 Länsiluode 7,7 1020,1 80 - 51
12:30 15,4 12,0 11,9 Länsiluode 7,6 1020,2 80 - 40
12:35 15,3 11,9 18,5 Länsiluode 12,2 1020,4 80 - 142
12:41 15,4 11,7 20,9 Länsiluode 27,4 1020,4 79 - 316
12:45 15,7 11,8 18,5 Luode 15,3 1020,4 78 - 302
12:51 15,8 12,0 11,3 Länsiluode 22,5 1020,5 78 - 373
Päivittäin yhteenveto Lauantai 24 Elokuu 2019
Aika Temp. ( °C ) Dew pt. ( °C ) Tuuli ( km/h ) Alkaa Puuska ( km/h ) Ilmanpaine ( hPa ) Humid.( % ) Rainrate ( cm ) Aurinkoenergia ( W/m2 )
Ylin16,2 13,8 20,9 Länsiluode ( 363/1080 ) 27,4 1020,5 97 0,20 568
Keskiarvo13,2 12,0 7,0 Länsi #46/155 7,4 1017,0 93 0,40 146 #84/155
Alin11,5 10,9 -   0,0 1014,1 77 -  
Päivittäin Tabular details for Lauantai 24 Elokuu 2019
Aika Temp. ( °C ) Dew pt. ( °C ) Tuuli ( km/h ) Alkaa Puuska ( km/h ) Ilmanpaine ( hPa ) Humid.( % ) Rainrate ( cm ) Aurinkoenergia ( W/m2 )
00:01 14,4 13,8 8,0 Lounas 14,5 1014,2 96 - -
00:05 14,3 13,7 13,5 Lounas 8,4 1014,1 96 0,20 -
00:11 14,3 13,7 8,0 Länsilounas 16,1 1014,2 96 - -
00:15 14,3 13,7 14,8 Länsilounas 5,6 1014,2 96 0,20 -
00:20 14,3 13,7 10,1 Länsi 6,6 1014,3 96 0,20 -
00:25 14,3 13,7 10,1 Länsilounas 7,4 1014,4 96 0,20 -
00:31 14,2 13,6 4,8 Länsilounas 12,9 1014,4 96 - -
00:35 14,2 13,6 15,3 Länsi 8,2 1014,5 96 0,20 -
00:41 14,1 13,4 1,6 Länsilounas 16,1 1014,6 96 - -
00:45 13,9 13,3 5,6 Länsiluode 3,4 1014,7 96 0,20 -
00:51 13,8 13,2 4,8 Länsi 12,9 1014,8 96 - -
00:56 13,8 13,0 13,5 Länsi 6,1 1014,8 95 - -
01:00 13,7 13,1 9,3 Länsiluode 4,2 1014,8 96 - -
01:06 13,6 13,0 7,4 Lounas 2,6 1014,8 96 - -
01:10 13,5 12,7 11,9 Länsiluode 1,8 1014,8 95 - -
01:15 13,4 12,8 6,8 Länsiluode 1,6 1014,8 96 - -
01:21 13,4 12,8 1,6 Luode 9,7 1014,9 96 - -
01:25 13,3 12,7   Tyyntä   1014,9 96 - -
01:31 13,1 12,3   Tyyntä 1,6 1014,9 95 - -
01:35 13,0 12,2 3,7 Luode 0,6 1014,9 95 - -
01:40 12,9 12,3 5,6 Luode 1,0 1015,0 96 - -
01:46 12,8 12,2 3,7 Luode 0,6 1014,9 96 - -
01:51 12,7 12,1   Tyyntä 9,7 1015,0 96 - -
01:55 12,6 12,0 3,7 Luode 0,2 1015,0 96 - -
02:01 12,5 11,8   Tyyntä 3,2 1015,1 96 - -
02:05 12,3 11,7   Tyyntä   1015,1 96 - -
02:11 12,2 11,6   Tyyntä 1,6 1015,1 96 - -
02:15 12,2 11,6 3,7 Länsiluode 1,0 1015,2 96 - -
02:21 12,3 11,7   Tyyntä 9,7 1015,3 96 - -
02:25 12,2 11,6 7,4 Länsiluode 2,7 1015,3 96 - -
02:31 12,2 11,7 1,6 Länsiluode 8,0 1015,4 97 - -
02:36 12,1 11,6 13,5 Länsilounas 9,2 1015,4 97 - -
02:41 12,2 11,7 3,2 Länsilounas 14,5 1015,4 97 - -
02:46 12,1 11,7 7,4 Länsilounas 1,6 1015,4 97 - -
02:50 12,1 11,6 3,7 Länsi 0,5 1015,4 97 - -
02:55 12,1 11,6 10,1 Länsi 2,9 1015,5 97 - -
03:01 12,0 11,4 3,2 Länsilounas 14,5 1015,5 96 - -
03:05 12,0 11,4 9,3 Länsilounas 5,1 1015,5 96 - -
03:11 11,9 11,3 1,6 Länsilounas 9,7 1015,5 96 - -
03:15 11,9 11,3 3,7 Länsi 0,6 1015,5 96 - -
03:21 11,8 11,2 3,2 Länsi 9,7 1015,5 96 - -
03:25 11,8 11,2 3,7 Länsiluode 1,0 1015,5 96 - -
03:30 11,7 11,1 8,4 Länsi 2,1 1015,5 96 - -
03:36 11,7 11,1 1,6 Länsi 0,2 1015,6 96 - -
03:40 11,6 11,0   Tyyntä   1015,6 96 - -
03:45 11,5 10,9 7,4 Länsi 1,8 1015,6 96 - -
03:50 11,6 10,9 7,4 Länsi 3,2 1015,6 96 - -
03:55 11,6 11,1   Tyyntä   1015,6 97 - -
04:01 11,6 11,1 3,2 Länsi 9,7 1015,7 97 - -
04:05 11,7 11,2 9,3 Länsilounas 2,3 1015,7 97 - -
04:11 11,7 11,2 1,6 Länsilounas 12,9 1015,8 97 - -
04:15 11,7 11,2 1,9 Lounas 0,2 1015,8 97 - -
04:21 11,7 11,2   Tyyntä 9,7 1015,9 97 - -
04:26 11,6 11,2 8,4 Länsilounas 3,5 1015,9 97 - -
04:31 11,6 11,2   Tyyntä 9,7 1016,0 97 - -
04:36 11,6 11,2 9,3 Länsilounas 3,1 1016,0 97 - -
04:41 11,7 11,2 3,2 Länsiluode 11,3 1016,1 97 - -
04:45 11,7 11,2 3,7 Länsiluode 0,6 1016,2 97 - -
04:51 11,7 11,2   Tyyntä 8,0 1016,2 97 - -
04:55 11,7 11,2   Tyyntä   1016,2 97 - -
05:01 11,7 11,2   Tyyntä 3,2 1016,3 97 - -
05:05 11,7 11,2 7,4 Länsiluode 3,2 1016,4 97 - -
05:11 11,8 11,3 1,6 Luode 9,7 1016,4 97 - -
05:15 11,8 11,3 9,3 Luode 3,9 1016,4 97 - -
05:21 11,8 11,4 3,2 Luode 9,7 1016,5 97 - -
05:26 11,9 11,4 11,1 Luode 7,2 1016,6 97 - -
05:30 11,9 11,5 9,3 Luode 4,3 1016,6 97 - -
05:35 11,9 11,5 9,3 Länsiluode 4,0 1016,7 97 - -
05:40 11,9 11,3 7,4 Länsiluode 1,6 1016,7 96 0,20 -
05:45 11,9 11,3 1,9 Länsiluode   1016,7 96 0,20 -
05:51 11,9 11,3   Tyyntä 3,2 1016,7 96 - -
05:55 11,8 11,2 1,9 Länsiluode 0,2 1016,8 96 0,20 5
06:01 11,7 11,1   Tyyntä 3,2 1016,8 96 - 7
06:05 11,8 11,2   Tyyntä   1016,9 96 0,20 7
06:11 11,8 11,2   Tyyntä 9,7 1016,9 96 - 9
06:15 11,9 11,3   Tyyntä   1016,9 96 0,20 11
06:20 11,9 11,3 1,6 Länsiluode 0,2 1017,0 96 0,20 14
06:25 12,0 11,6 3,4 Länsiluode 0,6 1017,0 97 0,20 14
06:31 12,0 11,4 1,6 Länsiluode 9,7 1017,0 96 - 19
06:36 12,1 11,4 7,4 Länsi 3,2 1017,2 96 - 19
06:41 12,1 11,6   Tyyntä 9,7 1017,2 97 - 26
06:46 12,0 11,4   Tyyntä   1017,1 96 - 23
06:51 12,0 11,4 1,6 Länsi 9,7 1017,2 96 - 26
06:55 12,0 11,6 9,3 Länsi 5,0 1017,2 97 - 44
07:01 12,1 11,6 1,6 Länsi 9,7 1017,3 97 - 42
07:05 12,1 11,7 6,8 Länsi 1,6 1017,3 97 - 42
07:11 12,2 11,7 1,6 Länsi 9,7 1017,3 97 - 42
07:15 12,2 11,8 5,1 Länsi 0,5 1017,4 97 - 51
07:21 12,3 11,8 3,2 Länsi 11,3 1017,3 97 - 51
07:25 12,3 11,9 10,1 Länsilounas 7,7 1017,4 97 - 47
07:31 12,3 11,7   Tyyntä 9,7 1017,4 96 - 54
07:36 12,4 11,8 9,3 Lounas 3,9 1017,3 96 - 56
07:41 12,4 11,8 3,2 Lounas 11,3 1017,4 96 - 81
07:46 12,5 11,9 5,6 Länsilounas 2,6 1017,5 96 - 58
07:50 12,6 11,9 10,1 Länsilounas 9,3 1017,5 96 - 72
07:55 12,7 12,1 6,8 Länsi 2,7 1017,5 96 - 74
08:01 12,7 12,1 1,6 Länsi 9,7 1017,5 96 - 77
08:05 12,8 12,2 7,4 Länsi 0,8 1017,5 96 - 86
08:11 12,8 12,0 3,2 Länsi 11,3 1017,6 95 - 67
08:15 12,8 12,1 11,9 Länsilounas 8,0 1017,6 95 - 81
08:21 12,8 12,1 9,7 Länsilounas 14,5 1017,6 95 - 79
08:25 12,9 12,1 3,7 Länsi 1,4 1017,6 95 - 120
08:30 13,0 12,2 11,9 Lounas 8,0 1017,7 95 - 146
08:35 13,0 12,2 7,4 Länsilounas 3,4 1017,8 95 - 118
08:40 13,1 12,1 8,4 Länsiluode 2,9 1017,9 94 - 102
08:46 13,1 12,1 7,4 Länsi 4,3 1018,1 94 - 102
08:51 13,1 12,2 8,0 Länsi 14,5 1018,1 94 - 79
08:55 13,1 12,2 11,9 Länsi 6,0 1018,2 94 - 86
09:01 13,1 12,2 9,7 Länsi 12,9 1018,3 94 - 98
09:05 13,2 12,1 18,5 Länsilounas 5,3 1018,3 93 - 121
09:10 13,2 12,1 3,7 Länsi 2,4 1018,3 93 - 128
09:15 13,3 12,2 15,3 Länsi 6,8 1018,2 93 - 204
09:21 13,6 12,4 8,0 Länsi 14,5 1018,2 93 - 272
09:25 13,7 12,6 9,3 Länsilounas 6,6 1018,2 93 - 186
09:31 13,8 12,6 8,0 Länsilounas 16,1 1018,2 92 - 243
09:35 13,9 12,5 13,5 Länsi 10,5 1018,2 91 - 258
09:41 14,1 12,6 8,0 Länsi 16,1 1018,3 91 - 206
09:46 14,2 12,8 13,5 Länsilounas 9,5 1018,4 91 - 207
09:51 14,3 12,8 4,8 Länsi 12,9 1018,4 91 - 165
09:56 14,3 12,7 11,9 Länsi 8,0 1018,5 90 - 162
10:01 14,3 12,7 8,0 Länsi 16,1 1018,4 90 - 200
10:06 14,6 12,9 9,3 Länsi 6,8 1018,4 90 - 547
10:10 14,8 13,2 7,4 Länsi 2,9 1018,5 90 - 452
10:15 15,1 12,9 11,1 Länsiluode 3,1 1018,6 87 - 197
10:21 15,2 12,9 8,0 Länsiluode 16,1 1018,6 86 - 568
10:25 15,5 13,3 13,0 Luode 6,9 1018,7 87 - 325
10:31 15,5 13,0 4,8 Länsi 19,3 1018,8 85 - 156
10:35 15,3 12,6 16,9 Länsilounas 10,3 1018,9 84 - 83
10:41 14,9 12,4 3,2 Länsi 20,9 1019,0 85 - 84
10:45 14,8 12,3 13,5 Länsiluode 7,4 1019,0 85 - 70
10:50 14,8 12,3 10,1 Länsiluode 6,9 1019,1 85 - 111
10:56 14,8 12,3 13,0 Länsi 9,0 1019,1 85 - 172
11:00 14,9 12,4 11,9 Länsi 7,1 1019,3 85 - 206
11:06 15,1 12,6 13,5 Luode 6,8 1019,2 85 - 302
11:11 15,3 12,7 9,7 Länsiluode 14,5 1019,3 84 - 237
11:15 15,4 12,6 16,9 Länsiluode 10,9 1019,4 83 - 199
11:21 15,3 12,3 8,0 Länsi 20,9 1019,4 82 - 155
11:25 15,3 12,4 16,9 Länsi 10,3 1019,6 83 - 246
11:31 15,4 12,4 8,0 Länsiluode 22,5 1019,6 82 - 323
11:35 15,8 12,7 13,5 Länsiluode 6,6 1019,5 82 - 564
11:41 16,2 12,4 9,7 Länsiluode 14,5 1019,6 78 - 220
11:45 16,1 12,0 15,3 Länsiluode 11,3 1019,7 77 - 149
11:51 15,9 12,1 11,3 Länsiluode 20,9 1019,7 78 - 188
11:56 15,8 12,2 10,1 Länsiluode 4,3 1019,8 79 - 193
12:01 15,8 12,3 3,2 Länsiluode 14,5 1019,9 80 - 244
12:06 15,9 12,2 16,9 Länsiluode 11,1 1019,9 79 - 188
12:11 15,8 12,2 9,7 Länsiluode 16,1 1020,0 79 - 153
12:16 15,7 12,1 10,1 Länsiluode 7,9 1020,0 79 - 116
12:20 15,7 12,1 13,5 Länsiluode 11,4 1020,1 79 - 88
12:25 15,6 12,1 10,1 Länsiluode 7,7 1020,1 80 - 51
12:30 15,4 12,0 11,9 Länsiluode 7,6 1020,2 80 - 40
12:35 15,3 11,9 18,5 Länsiluode 12,2 1020,4 80 - 142
12:41 15,4 11,7 20,9 Länsiluode 27,4 1020,4 79 - 316
12:45 15,7 11,8 18,5 Luode 15,3 1020,4 78 - 302
12:51 15,8 12,0 11,3 Länsiluode 22,5 1020,5 78 - 373

Download your copy of this data-set  here

Our weather-data as stored at Weather Underground. Alkuperäinen skripti Jim McMurry. Sovitettu myös templatelle Leuven-Template.eu